Year,Month,Day,Hour,Minute,Value (Times are PST for barometer in hPa)
2015,02,05,00,00,1004.47
2015,02,05,00,01,1004.50
2015,02,05,00,02,1004.47
2015,02,05,00,03,1004.50
2015,02,05,00,04,1004.45
2015,02,05,00,05,1004.32
2015,02,05,00,06,1004.30
2015,02,05,00,07,1004.30
2015,02,05,00,08,1004.24
2015,02,05,00,09,1004.23
2015,02,05,00,10,1004.20
2015,02,05,00,11,1004.20
2015,02,05,00,12,1004.22
2015,02,05,00,13,1004.20
2015,02,05,00,14,1004.23
2015,02,05,00,15,1004.18
2015,02,05,00,16,1004.14
2015,02,05,00,17,1004.13
2015,02,05,00,18,1004.11
2015,02,05,00,19,1004.04
2015,02,05,00,20,1004.03
2015,02,05,00,21,1004.01
2015,02,05,00,22,1003.97
2015,02,05,00,23,1003.96
2015,02,05,00,24,1003.96
2015,02,05,00,25,1003.93
2015,02,05,00,26,1003.93
2015,02,05,00,27,1003.93
2015,02,05,00,28,1003.96
2015,02,05,00,29,1003.91
2015,02,05,00,30,1003.90
2015,02,05,00,31,1003.90
2015,02,05,00,32,1003.84
2015,02,05,00,33,1003.80
2015,02,05,00,34,1003.71
2015,02,05,00,35,1003.67
2015,02,05,00,36,1003.63
2015,02,05,00,37,1003.65
2015,02,05,00,38,1003.60
2015,02,05,00,39,1003.59
2015,02,05,00,40,1003.59
2015,02,05,00,41,1003.53
2015,02,05,00,42,1003.55
2015,02,05,00,43,1003.53
2015,02,05,00,44,1003.50
2015,02,05,00,45,1003.52
2015,02,05,00,46,1003.52
2015,02,05,00,47,1003.52
2015,02,05,00,48,1003.55
2015,02,05,00,49,1003.50
2015,02,05,00,50,1003.46
2015,02,05,00,51,1003.46
2015,02,05,00,52,1003.43
2015,02,05,00,53,1003.39
2015,02,05,00,54,1003.33
2015,02,05,00,55,1003.32
2015,02,05,00,56,1003.32
2015,02,05,00,57,1003.32
2015,02,05,00,58,1003.26
2015,02,05,00,59,1003.25
2015,02,05,01,00,1003.25
2015,02,05,01,01,1003.19
2015,02,05,01,02,1003.18
2015,02,05,01,03,1003.21
2015,02,05,01,04,1003.19
2015,02,05,01,05,1003.15
2015,02,05,01,06,1003.12
2015,02,05,01,07,1003.09
2015,02,05,01,08,1003.08
2015,02,05,01,09,1003.05
2015,02,05,01,10,1003.05
2015,02,05,01,11,1003.02
2015,02,05,01,12,1003.01
2015,02,05,01,13,1002.98
2015,02,05,01,14,1002.95
2015,02,05,01,15,1002.92
2015,02,05,01,16,1002.91
2015,02,05,01,17,1002.91
2015,02,05,01,18,1002.86
2015,02,05,01,19,1002.88
2015,02,05,01,20,1002.79
2015,02,05,01,21,1002.78
2015,02,05,01,22,1002.81
2015,02,05,01,23,1002.81
2015,02,05,01,24,1002.78
2015,02,05,01,25,1002.78
2015,02,05,01,26,1002.75
2015,02,05,01,27,1002.66
2015,02,05,01,28,1002.70
2015,02,05,01,29,1002.65
2015,02,05,01,30,1002.58
2015,02,05,01,31,1002.57
2015,02,05,01,32,1002.54
2015,02,05,01,33,1002.51
2015,02,05,01,34,1002.48
2015,02,05,01,35,1002.44
2015,02,05,01,36,1002.38
2015,02,05,01,37,1002.37
2015,02,05,01,38,1002.34
2015,02,05,01,39,1002.37
2015,02,05,01,40,1002.34
2015,02,05,01,41,1002.34
2015,02,05,01,42,1002.31
2015,02,05,01,43,1002.25
2015,02,05,01,44,1002.18
2015,02,05,01,45,1002.11
2015,02,05,01,46,1002.12
2015,02,05,01,47,1002.10
2015,02,05,01,48,1002.10
2015,02,05,01,49,1002.07
2015,02,05,01,50,1002.04
2015,02,05,01,51,1002.03
2015,02,05,01,52,1002.01
2015,02,05,01,53,1002.00
2015,02,05,01,54,1001.97
2015,02,05,01,55,1001.94
2015,02,05,01,56,1001.99
2015,02,05,01,57,1002.03
2015,02,05,01,58,1002.06
2015,02,05,01,59,1002.07
2015,02,05,02,00,1002.04
2015,02,05,02,01,1002.01
2015,02,05,02,02,1002.00
2015,02,05,02,03,1001.97
2015,02,05,02,04,1001.94
2015,02,05,02,05,1001.90
2015,02,05,02,06,1001.84
2015,02,05,02,07,1001.81
2015,02,05,02,08,1001.80
2015,02,05,02,09,1001.74
2015,02,05,02,10,1001.67
2015,02,05,02,11,1001.60
2015,02,05,02,12,1001.56
2015,02,05,02,13,1001.58
2015,02,05,02,14,1001.53
2015,02,05,02,15,1001.52
2015,02,05,02,16,1001.47
2015,02,05,02,17,1001.38
2015,02,05,02,18,1001.33
2015,02,05,02,19,1001.30
2015,02,05,02,20,1001.26
2015,02,05,02,21,1001.20
2015,02,05,02,22,1001.13
2015,02,05,02,23,1001.12
2015,02,05,02,24,1001.04
2015,02,05,02,25,1001.05
2015,02,05,02,26,1001.05
2015,02,05,02,27,1000.99
2015,02,05,02,28,1000.98
2015,02,05,02,29,1000.96
2015,02,05,02,30,1000.95
2015,02,05,02,31,1000.93
2015,02,05,02,32,1000.86
2015,02,05,02,33,1000.76
2015,02,05,02,34,1000.75
2015,02,05,02,35,1000.80
2015,02,05,02,36,1000.78
2015,02,05,02,37,1000.72
2015,02,05,02,38,1000.65
2015,02,05,02,39,1000.64
2015,02,05,02,40,1000.53
2015,02,05,02,41,1000.53
2015,02,05,02,42,1000.51
2015,02,05,02,43,1000.51
2015,02,05,02,44,1000.45
2015,02,05,02,45,1000.44
2015,02,05,02,46,1000.42
2015,02,05,02,47,1000.38
2015,02,05,02,48,1000.37
2015,02,05,02,49,1000.37
2015,02,05,02,50,1000.32
2015,02,05,02,51,1000.25
2015,02,05,02,52,1000.18
2015,02,05,02,53,1000.17
2015,02,05,02,54,1000.17
2015,02,05,02,55,1000.15
2015,02,05,02,56,1000.14
2015,02,05,02,57,1000.05
2015,02,05,02,58,1000.03
2015,02,05,02,59,999.98
2015,02,05,03,00,999.97
2015,02,05,03,01,999.91
2015,02,05,03,02,999.88
2015,02,05,03,06,999.76
2015,02,05,03,07,999.80
2015,02,05,03,08,999.66
2015,02,05,03,09,999.63
2015,02,05,03,10,999.59
2015,02,05,03,11,999.56
2015,02,05,03,12,999.53
2015,02,05,03,13,999.59
2015,02,05,03,14,999.49
2015,02,05,03,15,999.46
2015,02,05,03,16,999.43
2015,02,05,03,17,999.36
2015,02,05,03,18,999.36
2015,02,05,03,19,999.29
2015,02,05,03,20,999.29
2015,02,05,03,21,999.22
2015,02,05,03,22,999.26
2015,02,05,03,23,999.15
2015,02,05,03,24,999.09
2015,02,05,03,25,999.09
2015,02,05,03,26,999.05
2015,02,05,03,27,999.02
2015,02,05,03,28,998.95
2015,02,05,03,29,998.92
2015,02,05,03,30,998.85
2015,02,05,03,31,998.82
2015,02,05,03,32,998.78
2015,02,05,03,33,998.71
2015,02,05,03,34,998.68
2015,02,05,03,35,998.61
2015,02,05,03,36,998.61
2015,02,05,03,37,998.61
2015,02,05,03,38,998.58
2015,02,05,03,39,998.54
2015,02,05,03,40,998.48
2015,02,05,03,41,998.44
2015,02,05,03,42,998.41
2015,02,05,03,43,998.41
2015,02,05,03,44,998.44
2015,02,05,03,45,998.44
2015,02,05,03,46,998.41
2015,02,05,03,47,998.41
2015,02,05,03,48,998.34
2015,02,05,03,49,998.34
2015,02,05,03,50,998.38
2015,02,05,03,51,998.31
2015,02,05,03,52,998.27
2015,02,05,03,53,998.17
2015,02,05,03,54,998.00
2015,02,05,03,55,998.04
2015,02,05,03,56,997.87
2015,02,05,03,57,997.77
2015,02,05,03,58,997.70
2015,02,05,03,59,997.77
2015,02,05,04,00,997.83
2015,02,05,04,01,997.80
2015,02,05,04,02,997.77
2015,02,05,04,03,997.77
2015,02,05,04,04,997.77
2015,02,05,04,05,997.77
2015,02,05,04,06,997.70
2015,02,05,04,07,997.70
2015,02,05,04,08,997.66
2015,02,05,04,09,997.56
2015,02,05,04,10,997.50
2015,02,05,04,11,997.53
2015,02,05,04,12,997.53
2015,02,05,04,13,997.50
2015,02,05,04,14,997.43
2015,02,05,04,15,997.39
2015,02,05,04,16,997.39
2015,02,05,04,17,997.43
2015,02,05,04,18,997.39
2015,02,05,04,19,997.33
2015,02,05,04,20,997.29
2015,02,05,04,21,997.26
2015,02,05,04,22,997.22
2015,02,05,04,23,997.19
2015,02,05,04,24,997.12
2015,02,05,04,25,997.09
2015,02,05,04,26,997.09
2015,02,05,04,27,997.16
2015,02,05,04,28,997.19
2015,02,05,04,29,997.02
2015,02,05,04,30,997.05
2015,02,05,04,31,997.05
2015,02,05,04,32,997.05
2015,02,05,04,33,997.09
2015,02,05,04,34,997.02
2015,02,05,04,35,996.92
2015,02,05,04,36,996.95
2015,02,05,04,37,996.92
2015,02,05,04,38,996.85
2015,02,05,04,39,996.82
2015,02,05,04,40,996.82
2015,02,05,04,41,996.85
2015,02,05,04,42,996.78
2015,02,05,04,43,996.82
2015,02,05,04,44,996.85
2015,02,05,04,45,996.82
2015,02,05,04,46,996.78
2015,02,05,04,47,996.75
2015,02,05,04,48,996.72
2015,02,05,04,49,996.65
2015,02,05,04,50,996.68
2015,02,05,04,51,996.72
2015,02,05,04,52,996.65
2015,02,05,04,53,996.55
2015,02,05,04,54,996.55
2015,02,05,04,55,996.51
2015,02,05,04,56,996.48
2015,02,05,04,57,996.45
2015,02,05,04,58,996.45
2015,02,05,04,59,996.48
2015,02,05,05,00,996.34
2015,02,05,05,01,996.34
2015,02,05,05,02,996.38
2015,02,05,05,03,996.41
2015,02,05,05,04,996.45
2015,02,05,05,05,996.41
2015,02,05,05,06,996.34
2015,02,05,05,07,996.15
2015,02,05,05,08,996.07
2015,02,05,05,09,996.11
2015,02,05,05,10,996.04
2015,02,05,05,11,996.07
2015,02,05,05,12,996.14
2015,02,05,05,13,996.07
2015,02,05,05,14,996.01
2015,02,05,05,15,995.97
2015,02,05,05,16,995.94
2015,02,05,05,17,995.90
2015,02,05,05,18,995.97
2015,02,05,05,19,996.01
2015,02,05,05,20,995.88
2015,02,05,05,21,995.80
2015,02,05,05,22,995.87
2015,02,05,05,23,995.87
2015,02,05,05,24,995.73
2015,02,05,05,25,995.77
2015,02,05,05,26,995.73
2015,02,05,05,27,995.70
2015,02,05,05,28,995.60
2015,02,05,05,29,995.67
2015,02,05,05,30,995.67
2015,02,05,05,31,995.67
2015,02,05,05,32,995.57
2015,02,05,05,33,995.53
2015,02,05,05,34,995.60
2015,02,05,05,35,995.60
2015,02,05,05,36,995.54
2015,02,05,05,37,995.46
2015,02,05,05,38,995.50
2015,02,05,05,39,995.53
2015,02,05,05,40,995.50
2015,02,05,05,41,995.41
2015,02,05,05,42,995.33
2015,02,05,05,43,995.36
2015,02,05,05,44,995.29
2015,02,05,05,45,995.36
2015,02,05,05,46,995.43
2015,02,05,05,47,995.34
2015,02,05,05,48,995.36
2015,02,05,05,49,995.36
2015,02,05,05,50,995.33
2015,02,05,05,51,995.27
2015,02,05,05,52,995.23
2015,02,05,05,53,995.12
2015,02,05,05,54,995.16
2015,02,05,05,55,995.12
2015,02,05,05,56,995.16
2015,02,05,05,57,995.06
2015,02,05,05,58,995.02
2015,02,05,05,59,994.99
2015,02,05,06,00,995.06
2015,02,05,06,01,995.06
2015,02,05,06,02,995.02
2015,02,05,06,03,994.92
2015,02,05,06,04,994.85
2015,02,05,06,05,994.85
2015,02,05,06,06,994.85
2015,02,05,06,07,994.85
2015,02,05,06,08,994.89
2015,02,05,06,09,994.79
2015,02,05,06,10,994.75
2015,02,05,06,11,994.68
2015,02,05,06,12,994.72
2015,02,05,06,13,994.75
2015,02,05,06,14,994.84
2015,02,05,06,15,994.82
2015,02,05,06,16,994.75
2015,02,05,06,17,994.72
2015,02,05,06,18,994.75
2015,02,05,06,19,994.75
2015,02,05,06,20,994.68
2015,02,05,06,21,994.65
2015,02,05,06,22,994.65
2015,02,05,06,23,994.65
2015,02,05,06,24,994.62
2015,02,05,06,25,994.55
2015,02,05,06,26,994.52
2015,02,05,06,27,994.52
2015,02,05,06,28,994.41
2015,02,05,06,29,994.41
2015,02,05,06,30,994.35
2015,02,05,06,31,994.41
2015,02,05,06,32,994.38
2015,02,05,06,33,994.45
2015,02,05,06,34,994.35
2015,02,05,06,35,994.31
2015,02,05,06,36,994.35
2015,02,05,06,37,994.28
2015,02,05,06,38,994.28
2015,02,05,06,39,994.28
2015,02,05,06,40,994.31
2015,02,05,06,41,994.28
2015,02,05,06,42,994.35
2015,02,05,06,43,994.31
2015,02,05,06,44,994.38
2015,02,05,06,45,994.41
2015,02,05,06,46,994.35
2015,02,05,06,47,994.31
2015,02,05,06,48,994.38
2015,02,05,06,49,994.41
2015,02,05,06,50,994.29
2015,02,05,06,51,994.24
2015,02,05,06,52,994.28
2015,02,05,06,53,994.35
2015,02,05,06,54,994.38
2015,02,05,06,55,994.38
2015,02,05,06,56,994.24
2015,02,05,06,57,994.21
2015,02,05,06,58,994.31
2015,02,05,06,59,994.19
2015,02,05,07,00,994.11
2015,02,05,07,01,994.11
2015,02,05,07,02,994.07
2015,02,05,07,03,994.01
2015,02,05,07,04,993.91
2015,02,05,07,05,993.84
2015,02,05,07,06,993.96
2015,02,05,07,07,994.10
2015,02,05,07,08,994.28
2015,02,05,07,09,994.12
2015,02,05,07,10,994.04
2015,02,05,07,11,994.04
2015,02,05,07,12,994.27
2015,02,05,07,13,994.28
2015,02,05,07,14,994.15
2015,02,05,07,15,994.23
2015,02,05,07,16,994.18
2015,02,05,07,17,994.24
2015,02,05,07,18,994.21
2015,02,05,07,19,994.14
2015,02,05,07,20,994.14
2015,02,05,07,21,994.18
2015,02,05,07,22,994.21
2015,02,05,07,23,994.18
2015,02,05,07,24,994.14
2015,02,05,07,25,993.98
2015,02,05,07,26,994.01
2015,02,05,07,27,994.04
2015,02,05,07,28,994.01
2015,02,05,07,29,993.97
2015,02,05,07,30,993.97
2015,02,05,07,31,994.01
2015,02,05,07,32,994.13
2015,02,05,07,33,994.30
2015,02,05,07,34,994.31
2015,02,05,07,35,994.31
2015,02,05,07,36,994.35
2015,02,05,07,37,994.35
2015,02,05,07,38,994.38
2015,02,05,07,39,994.35
2015,02,05,07,40,994.28
2015,02,05,07,41,994.31
2015,02,05,07,42,994.44
2015,02,05,07,43,994.41
2015,02,05,07,44,994.32
2015,02,05,07,45,994.35
2015,02,05,07,46,994.31
2015,02,05,07,47,994.28
2015,02,05,07,48,994.40
2015,02,05,07,49,994.54
2015,02,05,07,50,994.65
2015,02,05,07,51,994.65
2015,02,05,07,52,994.58
2015,02,05,07,53,994.65
2015,02,05,07,54,994.62
2015,02,05,07,55,994.68
2015,02,05,07,56,994.65
2015,02,05,07,57,994.65
2015,02,05,07,58,994.65
2015,02,05,07,59,994.52
2015,02,05,08,00,994.46
2015,02,05,08,01,994.41
2015,02,05,08,02,994.52
2015,02,05,08,03,994.41
2015,02,05,08,04,994.48
2015,02,05,08,05,994.55
2015,02,05,08,06,994.52
2015,02,05,08,07,994.52
2015,02,05,08,08,994.64
2015,02,05,08,09,994.62
2015,02,05,08,10,994.65
2015,02,05,08,11,994.62
2015,02,05,08,12,994.58
2015,02,05,08,13,994.58
2015,02,05,08,14,994.62
2015,02,05,08,15,994.62
2015,02,05,08,16,994.55
2015,02,05,08,17,994.26
2015,02,05,08,18,994.28
2015,02,05,08,19,994.51
2015,02,05,08,20,994.42
2015,02,05,08,21,994.54
2015,02,05,08,22,994.62
2015,02,05,08,23,994.68
2015,02,05,08,24,994.62
2015,02,05,08,25,994.72
2015,02,05,08,26,994.65
2015,02,05,08,27,994.55
2015,02,05,08,28,994.52
2015,02,05,08,29,994.48
2015,02,05,08,30,994.61
2015,02,05,08,31,994.49
2015,02,05,08,32,994.32
2015,02,05,08,33,994.47
2015,02,05,08,34,994.55
2015,02,05,08,35,994.45
2015,02,05,08,36,994.48
2015,02,05,08,37,994.41
2015,02,05,08,38,994.45
2015,02,05,08,39,994.41
2015,02,05,08,40,994.38
2015,02,05,08,41,994.38
2015,02,05,08,42,994.45
2015,02,05,08,43,994.48
2015,02,05,08,44,994.48
2015,02,05,08,45,994.61
2015,02,05,08,46,994.49
2015,02,05,08,47,994.45
2015,02,05,08,48,994.54
2015,02,05,08,49,994.39
2015,02,05,08,50,994.38
2015,02,05,08,51,994.45
2015,02,05,08,52,994.52
2015,02,05,08,53,994.45
2015,02,05,08,54,994.57
2015,02,05,08,55,994.39
2015,02,05,08,56,994.41
2015,02,05,08,57,994.41
2015,02,05,08,58,994.52
2015,02,05,08,59,994.48
2015,02,05,09,00,994.61
2015,02,05,09,01,994.65
2015,02,05,09,02,994.78
2015,02,05,09,03,994.75
2015,02,05,09,04,994.63
2015,02,05,09,05,994.65
2015,02,05,09,06,994.65
2015,02,05,09,07,994.55
2015,02,05,09,08,994.62
2015,02,05,09,09,994.68
2015,02,05,09,10,994.72
2015,02,05,09,11,994.55
2015,02,05,09,12,994.55
2015,02,05,09,13,994.55
2015,02,05,09,14,994.58
2015,02,05,09,15,994.65
2015,02,05,09,16,994.65
2015,02,05,09,17,994.55
2015,02,05,09,18,994.58
2015,02,05,09,19,994.58
2015,02,05,09,20,994.52
2015,02,05,09,21,994.61
2015,02,05,09,22,994.65
2015,02,05,09,23,994.58
2015,02,05,09,24,994.62
2015,02,05,09,25,994.68
2015,02,05,09,26,994.68
2015,02,05,09,27,994.68
2015,02,05,09,28,994.50
2015,02,05,09,29,994.55
2015,02,05,09,30,994.55
2015,02,05,09,31,994.65
2015,02,05,09,32,994.58
2015,02,05,09,33,994.71
2015,02,05,09,34,994.75
2015,02,05,09,35,994.75
2015,02,05,09,36,994.79
2015,02,05,09,37,994.88
2015,02,05,09,38,994.95
2015,02,05,09,39,994.99
2015,02,05,09,40,994.90
2015,02,05,09,41,994.70
2015,02,05,09,42,994.81
2015,02,05,09,43,994.85
2015,02,05,09,44,994.82
2015,02,05,09,45,994.91
2015,02,05,09,46,994.73
2015,02,05,09,47,994.91
2015,02,05,09,48,994.92
2015,02,05,09,49,994.85
2015,02,05,09,50,994.73
2015,02,05,09,51,994.91
2015,02,05,09,52,994.83
2015,02,05,09,53,994.85
2015,02,05,09,54,994.89
2015,02,05,09,55,994.98
2015,02,05,09,56,994.90
2015,02,05,09,57,994.96
2015,02,05,09,58,994.83
2015,02,05,09,59,994.85
2015,02,05,10,00,994.82
2015,02,05,10,01,994.79
2015,02,05,10,02,994.79
2015,02,05,10,03,994.75
2015,02,05,10,04,994.84
2015,02,05,10,05,994.76
2015,02,05,10,06,994.79
2015,02,05,10,07,994.84
2015,02,05,10,08,994.98
2015,02,05,10,09,994.96
2015,02,05,10,10,994.99
2015,02,05,10,11,995.11
2015,02,05,10,12,995.00
2015,02,05,10,13,995.02
2015,02,05,10,14,995.06
2015,02,05,10,15,995.09
2015,02,05,10,16,995.03
2015,02,05,10,17,994.99
2015,02,05,10,18,995.09
2015,02,05,10,19,994.99
2015,02,05,10,20,995.15
2015,02,05,10,21,995.16
2015,02,05,10,22,995.07
2015,02,05,10,23,995.12
2015,02,05,10,24,995.06
2015,02,05,10,25,995.16
2015,02,05,10,26,995.19
2015,02,05,10,27,995.16
2015,02,05,10,28,995.07
2015,02,05,10,29,995.18
2015,02,05,10,30,995.23
2015,02,05,10,31,995.13
2015,02,05,10,32,995.18
2015,02,05,10,33,995.19
2015,02,05,10,34,995.23
2015,02,05,10,35,995.23
2015,02,05,10,36,995.12
2015,02,05,10,37,995.12
2015,02,05,10,38,995.12
2015,02,05,10,39,995.25
2015,02,05,10,40,995.23
2015,02,05,10,41,995.23
2015,02,05,10,42,995.26
2015,02,05,10,43,995.29
2015,02,05,10,44,995.45
2015,02,05,10,45,995.24
2015,02,05,10,46,995.49
2015,02,05,10,47,995.37
2015,02,05,10,48,995.49
2015,02,05,10,49,995.53
2015,02,05,10,50,995.53
2015,02,05,10,51,995.60
2015,02,05,10,52,995.51
2015,02,05,10,53,995.68
2015,02,05,10,54,995.70
2015,02,05,10,55,995.57
2015,02,05,10,56,995.53
2015,02,05,10,57,995.44
2015,02,05,10,58,995.43
2015,02,05,10,59,995.50
2015,02,05,11,00,995.69
2015,02,05,11,01,995.70
2015,02,05,11,02,995.76
2015,02,05,11,03,995.67
2015,02,05,11,04,995.61
2015,02,05,11,05,995.82
2015,02,05,11,06,995.77
2015,02,05,11,07,995.84
2015,02,05,11,08,995.73
2015,02,05,11,09,995.77
2015,02,05,11,10,995.77
2015,02,05,11,11,995.80
2015,02,05,11,12,995.73
2015,02,05,11,13,995.77
2015,02,05,11,14,995.83
2015,02,05,11,15,995.90
2015,02,05,11,16,996.03
2015,02,05,11,17,995.98
2015,02,05,11,18,996.07
2015,02,05,11,19,996.01
2015,02,05,11,20,995.91
2015,02,05,11,21,995.84
2015,02,05,11,22,995.90
2015,02,05,11,23,995.94
2015,02,05,11,24,995.94
2015,02,05,11,25,995.84
2015,02,05,11,26,995.77
2015,02,05,11,27,995.77
2015,02,05,11,28,995.84
2015,02,05,11,29,995.96
2015,02,05,11,30,995.90
2015,02,05,11,31,995.94
2015,02,05,11,32,996.01
2015,02,05,11,33,995.95
2015,02,05,11,34,995.90
2015,02,05,11,35,996.00
2015,02,05,11,36,996.20
2015,02,05,11,37,996.27
2015,02,05,11,38,996.17
2015,02,05,11,39,996.21
2015,02,05,11,40,996.21
2015,02,05,11,41,996.17
2015,02,05,11,42,996.21
2015,02,05,11,43,996.12
2015,02,05,11,44,996.16
2015,02,05,11,45,996.11
2015,02,05,11,46,996.11
2015,02,05,11,47,996.07
2015,02,05,11,48,996.11
2015,02,05,11,49,996.11
2015,02,05,11,50,996.23
2015,02,05,11,51,996.28
2015,02,05,11,52,996.22
2015,02,05,11,53,996.24
2015,02,05,11,54,996.28
2015,02,05,11,55,996.34
2015,02,05,11,56,996.34
2015,02,05,11,57,996.34
2015,02,05,11,58,996.31
2015,02,05,11,59,996.31
2015,02,05,12,00,996.37
2015,02,05,12,01,996.34
2015,02,05,12,02,996.34
2015,02,05,12,03,996.31
2015,02,05,12,04,996.28
2015,02,05,12,05,996.17
2015,02,05,12,06,996.11
2015,02,05,12,07,996.11
2015,02,05,12,08,996.23
2015,02,05,12,09,996.12
2015,02,05,12,10,996.11
2015,02,05,12,11,996.27
2015,02,05,12,12,996.28
2015,02,05,12,13,996.31
2015,02,05,12,14,996.22
2015,02,05,12,15,996.17
2015,02,05,12,16,996.21
2015,02,05,12,17,996.17
2015,02,05,12,18,996.11
2015,02,05,12,19,996.16
2015,02,05,12,20,996.28
2015,02,05,12,21,996.18
2015,02,05,12,22,996.12
2015,02,05,12,23,996.17
2015,02,05,12,24,996.17
2015,02,05,12,25,996.17
2015,02,05,12,26,996.28
2015,02,05,12,27,996.34
2015,02,05,12,28,996.31
2015,02,05,12,29,996.34
2015,02,05,12,30,996.34
2015,02,05,12,31,996.38
2015,02,05,12,32,996.32
2015,02,05,12,33,996.31
2015,02,05,12,34,996.34
2015,02,05,12,35,996.31
2015,02,05,12,36,996.28
2015,02,05,12,37,996.28
2015,02,05,12,38,996.38
2015,02,05,12,39,996.29
2015,02,05,12,40,996.28
2015,02,05,12,41,996.17
2015,02,05,12,42,996.11
2015,02,05,12,43,996.21
2015,02,05,12,44,996.17
2015,02,05,12,45,996.17
2015,02,05,12,46,996.08
2015,02,05,12,47,996.14
2015,02,05,12,48,996.11
2015,02,05,12,49,996.07
2015,02,05,12,50,996.04
2015,02,05,12,51,996.01
2015,02,05,12,52,995.97
2015,02,05,12,53,996.04
2015,02,05,12,54,995.98
2015,02,05,12,55,996.01
2015,02,05,12,56,995.94
2015,02,05,12,57,995.87
2015,02,05,12,58,995.90
2015,02,05,12,59,995.90
2015,02,05,13,00,995.87
2015,02,05,13,01,995.87
2015,02,05,13,02,995.87
2015,02,05,13,03,995.87
2015,02,05,13,04,995.84
2015,02,05,13,05,995.93
2015,02,05,13,06,995.88
2015,02,05,13,07,995.93
2015,02,05,13,08,995.88
2015,02,05,13,09,995.87
2015,02,05,13,10,995.87
2015,02,05,13,11,995.84
2015,02,05,13,12,995.80
2015,02,05,13,13,995.84
2015,02,05,13,14,995.84
2015,02,05,13,15,995.84
2015,02,05,13,16,995.80
2015,02,05,13,17,995.73
2015,02,05,13,18,995.80
2015,02,05,13,19,995.80
2015,02,05,13,20,995.77
2015,02,05,13,21,995.64
2015,02,05,13,22,995.78
2015,02,05,13,23,995.73
2015,02,05,13,24,995.70
2015,02,05,13,25,995.70
2015,02,05,13,26,995.70
2015,02,05,13,27,995.70
2015,02,05,13,28,995.67
2015,02,05,13,29,995.67
2015,02,05,13,30,995.70
2015,02,05,13,31,995.73
2015,02,05,13,32,995.61
2015,02,05,13,33,995.67
2015,02,05,13,34,995.63
2015,02,05,13,35,995.63
2015,02,05,13,36,995.57
2015,02,05,13,37,995.69
2015,02,05,13,38,995.61
2015,02,05,13,39,995.54
2015,02,05,13,40,995.56
2015,02,05,13,41,995.53
2015,02,05,13,42,995.56
2015,02,05,13,43,995.56
2015,02,05,13,44,995.69
2015,02,05,13,45,995.64
2015,02,05,13,46,995.63
2015,02,05,13,47,995.63
2015,02,05,13,48,995.63
2015,02,05,13,49,995.57
2015,02,05,13,50,995.60
2015,02,05,13,51,995.63
2015,02,05,13,52,995.60
2015,02,05,13,53,995.56
2015,02,05,13,54,995.56
2015,02,05,13,55,995.53
2015,02,05,13,56,995.50
2015,02,05,13,57,995.50
2015,02,05,13,58,995.59
2015,02,05,13,59,995.60
2015,02,05,14,00,995.56
2015,02,05,14,01,995.60
2015,02,05,14,02,995.56
2015,02,05,14,03,995.53
2015,02,05,14,04,995.59
2015,02,05,14,05,995.56
2015,02,05,14,06,995.44
2015,02,05,14,07,995.46
2015,02,05,14,08,995.36
2015,02,05,14,09,995.27
2015,02,05,14,10,995.29
2015,02,05,14,11,995.26
2015,02,05,14,12,995.32
2015,02,05,14,13,995.29
2015,02,05,14,14,995.20
2015,02,05,14,15,995.28
2015,02,05,14,16,995.17
2015,02,05,14,17,995.19
2015,02,05,14,18,995.16
2015,02,05,14,19,995.12
2015,02,05,14,20,995.19
2015,02,05,14,21,995.13
2015,02,05,14,22,995.22
2015,02,05,14,23,995.23
2015,02,05,14,24,995.17
2015,02,05,14,25,995.19
2015,02,05,14,26,995.09
2015,02,05,14,27,995.12
2015,02,05,14,28,995.18
2015,02,05,14,29,995.19
2015,02,05,14,30,995.26
2015,02,05,14,31,995.17
2015,02,05,14,32,995.16
2015,02,05,14,33,995.19
2015,02,05,14,34,995.13
2015,02,05,14,35,995.03
2015,02,05,14,36,995.02
2015,02,05,14,37,994.99
2015,02,05,14,38,994.99
2015,02,05,14,39,994.86
2015,02,05,14,40,994.98
2015,02,05,14,41,994.99
2015,02,05,14,42,995.02
2015,02,05,14,43,994.99
2015,02,05,14,44,994.90
2015,02,05,14,45,994.82
2015,02,05,14,46,994.76
2015,02,05,14,47,994.75
2015,02,05,14,48,994.79
2015,02,05,14,49,994.75
2015,02,05,14,50,994.78
2015,02,05,14,51,994.75
2015,02,05,14,52,994.72
2015,02,05,14,53,994.75
2015,02,05,14,54,994.72
2015,02,05,14,55,994.72
2015,02,05,14,56,994.78
2015,02,05,14,57,994.73
2015,02,05,14,58,994.72
2015,02,05,14,59,994.78
2015,02,05,15,00,994.72
2015,02,05,15,01,994.75
2015,02,05,15,02,994.72
2015,02,05,15,03,994.63
2015,02,05,15,04,994.58
2015,02,05,15,05,994.55
2015,02,05,15,06,994.52
2015,02,05,15,07,994.39
2015,02,05,15,08,994.32
2015,02,05,15,09,994.24
2015,02,05,15,10,994.21
2015,02,05,15,11,994.21
2015,02,05,15,12,994.14
2015,02,05,15,13,994.11
2015,02,05,15,14,994.07
2015,02,05,15,15,994.17
2015,02,05,15,16,994.18
2015,02,05,15,17,994.09
2015,02,05,15,18,994.02
2015,02,05,15,19,993.97
2015,02,05,15,20,993.88
2015,02,05,15,21,993.84
2015,02,05,15,22,993.84
2015,02,05,15,23,993.80
2015,02,05,15,24,993.84
2015,02,05,15,25,993.71
2015,02,05,15,26,993.70
2015,02,05,15,27,993.67
2015,02,05,15,28,993.58
2015,02,05,15,29,993.60
2015,02,05,15,30,993.57
2015,02,05,15,31,993.57
2015,02,05,15,32,993.57
2015,02,05,15,33,993.48
2015,02,05,15,34,993.43
2015,02,05,15,35,993.43
2015,02,05,15,36,993.40
2015,02,05,15,37,993.36
2015,02,05,15,38,993.33
2015,02,05,15,39,993.33
2015,02,05,15,40,993.30
2015,02,05,15,41,993.35
2015,02,05,15,42,993.36
2015,02,05,15,43,993.33
2015,02,05,15,44,993.33
2015,02,05,15,45,993.33
2015,02,05,15,46,993.33
2015,02,05,15,47,993.33
2015,02,05,15,48,993.39
2015,02,05,15,49,993.36
2015,02,05,15,50,993.33
2015,02,05,15,51,993.39
2015,02,05,15,52,993.36
2015,02,05,15,53,993.36
2015,02,05,15,54,993.36
2015,02,05,15,55,993.42
2015,02,05,15,56,993.47
2015,02,05,15,57,993.43
2015,02,05,15,58,993.43
2015,02,05,15,59,993.37
2015,02,05,16,00,993.42
2015,02,05,16,01,993.34
2015,02,05,16,02,993.30
2015,02,05,16,03,993.24
2015,02,05,16,04,993.23
2015,02,05,16,05,993.26
2015,02,05,16,06,993.23
2015,02,05,16,07,993.26
2015,02,05,16,08,993.26
2015,02,05,16,09,993.26
2015,02,05,16,10,993.23
2015,02,05,16,11,993.26
2015,02,05,16,12,993.23
2015,02,05,16,13,993.23
2015,02,05,16,14,993.23
2015,02,05,16,15,993.23
2015,02,05,16,16,993.19
2015,02,05,16,17,993.19
2015,02,05,16,18,993.16
2015,02,05,16,19,993.13
2015,02,05,16,20,993.09
2015,02,05,16,21,993.09
2015,02,05,16,22,993.06
2015,02,05,16,23,993.00
2015,02,05,16,24,993.06
2015,02,05,16,25,992.93
2015,02,05,16,26,992.99
2015,02,05,16,27,992.99
2015,02,05,16,28,992.90
2015,02,05,16,29,992.92
2015,02,05,16,30,992.89
2015,02,05,16,31,992.92